Flag for Germany Weather past 2 weeks in Freiburg, Baden-Württemberg, Germany

Now
37 °F

Light rain. Low clouds.


Feels Like: 33 °F
Forecast: 29 / 40 °F
Wind: 5 mph from Southwest

Location: Freiburg

Current Time: Jan 27, 2015 at 2:37:25 AM

Latest Report: Jan 27, 2015 at 12:00 AM


Visibility: 8 mi

Pressure: 30.20 "Hg

Humidity: 91%

Dew point: 35 °F

Location of FreiburgLocation

Historic Weather in Freiburg — Graph

°F

Freiburg temperature yesterday

Maximum temperature yesterday: 37 °F (at 11:00 PM)
Minimum temperature yesterday: 32 °F (at 12:00 AM)
Average temperature yesterday: 34 °F

Past Weeks' High & Low Weather Summary

 TemperatureHumidityPressure
High59 °F (Jan 13, 3:00 PM)100% (Jan 18, 11:00 PM)30.50 "Hg (Jan 18, 11:00 PM)
Low25 °F (Jan 19, 5:00 AM)25% (Jan 12, 9:00 PM)29.73 "Hg (Jan 16, 3:00 PM)
Average38 °F82%30.07 "Hg
* Reported Midnight between Jan 11 and Jan 12 — Midnight between Jan 26 and Jan 27, Freiburg, Weather by CustomWeather, © 2014

Note: Actual official high and low records may vary slightly from our data, if they occured in-between our weather recording intervals... More about our weather records

Advertising

Freiburg weather history for previous 24 hours

 ConditionsComfort  
Time TempWeatherWind HumidityBarometerVisibility
12:00 AM
Jan 27
37 °FLight rain. Low clouds.5 mph91%30.20 "Hg8 mi
11:00 PM
Jan 26
37 °FRain. Overcast.7 mph92%30.20 "Hg2 mi
9:00 PM36 °FLight rain. Overcast.8 mph92%30.21 "Hg4 mi
8:00 PM36 °FLight rain. Light fog.9 mph91%30.22 "Hg7 mi
6:00 PM35 °FLight rain. Low clouds.6 mph92%30.24 "Hg7 mi
5:00 PM35 °FFreezing rain. Haze.7 mph90%30.24 "Hg9 mi
3:00 PM35 °FLight snow. Light fog.5 mph90%30.28 "Hg5 mi
2:00 PM35 °FLight snow. Light fog.5 mph86%30.30 "Hg6 mi
12:00 PM35 °FLight snow. Light fog.1 mph89%30.35 "Hg7 mi
11:00 AM34 °FLight snow. Overcast.2 mph89%30.37 "Hg8 mi
10:00 AMN/APassing clouds.20 mphN/AN/A2 mi
9:00 AM33 °FLight snow. Fog.2 mph96%30.40 "Hg3 mi
8:00 AM33 °FLight snow. Fog.2 mph93%30.40 "Hg2 mi
6:00 AM33 °FLight snow. Dense fog.2 mph95%30.42 "Hg2 mi
5:00 AM32 °FLight snow. Overcast.No wind96%30.41 "Hg3 mi
3:00 AM32 °FOvercast.1 mph96%30.43 "Hg6 mi
2:00 AM32 °FSnow flurries. Overcast.No wind96%30.43 "Hg6 mi
Weather by CustomWeather, © 2014

See weather overviewHow to use our weather pages